Location: Spring Creek
(38.2870°N, 100.2160°W)
Time: 13:10:58
(UTC+00:00)

Resurs 01 Rocket - Pass Details

Date: 08 May 2021
Orbit: 633 x 644 km, 97.9° (Epoch: 22 June)

Event Time Altitude Azimuth Distance (km) Brightness Sun altitude
Exits shadow 02:36:33 15° 121° (ESE) 1,718 3.2 -11.0°
Maximum altitude 02:39:22 28° 70° (ENE) 1,199 2.7 -11.4°
Drops below altitude 10° 02:43:11 10° 11° (N) 2,046 4.5 -12.1°
Sets 02:45:37 0° 0° (N) 2,958 5.6 -12.5°
